リニア彗星

C/1998 K2 ( LINEAR )

English version
Home page
Updated on January 26, 2000

---------------------------------------------------------------------

・ プロフィール

発見日 1998年5月22日
発見光度 15.7等
発見者 Lincoln Laboratory Near-Earth Asteroid Research project

・ 軌道要素

   The following improved orbital elements by Kenji Muraoka, are from
  180 observations  1998 May 22 to 1999 Dec. 3, including 9 Planets,
  Moon and 5 minor planets perturbations and non-gravitational effect
  of style II.   The mean residual is +/- 0.69 arc seconds.

      Epoch  =  1998 Aug. 15.0  TT       JDT = 2451040.5
          T  =  1998 Sept. 1.22545       +/- 0.00134 (m.e.) TT
       Peri. =  221.41621                +/- 0.00063
       Node  =   68.78093                +/- 0.00001   (2000.0)
       Incl. =   64.45670                +/- 0.00005
          q  =    2.3235003              +/- 0.0000066 AU
          e  =    0.9993382              +/- 0.0000150
        1/a  =   +0.0002848              +/- 0.0000065 1/AU
         A1  =   -6.58                   +/- 2.29
         A2  =  -12.3554                 +/- 1.8218
        ( P  = 208017 years )

・ 星図

・ 光度変化

        m1 = 9.5 + 5 logΔ + 5.0 log r

---------------------------------------------------------------------

軌道要素は村岡健治氏の計算によるものです。
星図は StellaNavigator Ver.2.0 for Windows (アストロアーツ 編著 / アスキー出版局刊) で作成したものです。
光度グラフはComet for Windowsで作成したものです。

---------------------------------------------------------------------

Copyright(C) Seiichi Yoshida (comet@aerith.net). All rights reserved.